,,,PA_Meas_PMT16A,,PR_Meas_QMR101_102,,RH_Meas_QMH101,,SR_Meas_QMS101,,TA_Meas_QMH101,,GenWind,,GenWind,
date,time,status,PA,status,PR,status,RH,status,SR,status,TA,status,DirAvg,status,SpdAvg,
2011-11-12, 00:00:04,VALID,1004.36,VALID,0,VALID,83.1319,VALID,0,VALID,26.3498,VALID,7,VALID,1.52148,
2011-11-12, 00:01:04,VALID,1004.36,VALID,0,VALID,83.4828,VALID,0,VALID,26.3323,VALID,21,VALID,0.898828,
2011-11-12, 00:02:04,VALID,1004.38,VALID,0,VALID,83.6354,VALID,0,VALID,26.3128,VALID,21,VALID,0.627734,
2011-11-12, 00:03:04,VALID,1004.35,VALID,0,VALID,83.5744,VALID,0,VALID,26.2719,VALID,27,VALID,1.05391,
2011-11-12, 00:04:04,VALID,1004.35,VALID,0,VALID,83.6964,VALID,0,VALID,26.2524,VALID,17,VALID,1.04648,
2011-11-12, 00:05:04,VALID,1004.35,VALID,0,VALID,83.7346,VALID,0,VALID,26.2349,VALID,27,VALID,1.11289,
2011-11-12, 00:06:04,VALID,1004.33,VALID,0,VALID,83.6659,VALID,0,VALID,26.2349,VALID,34,VALID,1.05352,
2011-11-12, 00:07:04,VALID,1004.32,VALID,0,VALID,83.643,VALID,0,VALID,26.2134,VALID,25,VALID,1.23359,
2011-11-12, 00:08:04,VALID,1004.32,VALID,0,VALID,83.6888,VALID,0,VALID,26.2544,VALID,16,VALID,0.902734,
2011-11-12, 00:09:04,VALID,1004.34,VALID,0,VALID,83.5134,VALID,0,VALID,26.2739,VALID,4,VALID,0.901563,
2011-11-12, 00:10:04,VALID,1004.31,VALID,0,VALID,83.3837,VALID,0,VALID,26.2739,VALID,344,VALID,1.19531,
2011-11-12, 00:11:04,VALID,1004.31,VALID,0,VALID,83.1777,VALID,0,VALID,26.2913,VALID,16,VALID,2.13516,
2011-11-12, 00:12:04,VALID,1004.29,VALID,0,VALID,82.9259,VALID,0,VALID,26.3713,VALID,35,VALID,1.09844,
2011-11-12, 00:13:04,VALID,1004.3,VALID,0,VALID,82.987,VALID,0,VALID,26.3907,VALID,28,VALID,1.2207,
2011-11-12, 00:14:04,VALID,1004.28,VALID,0,VALID,82.8344,VALID,0,VALID,26.3887,VALID,31,VALID,0.675781,
2011-11-12, 00:15:04,VALID,1004.28,VALID,0,VALID,83.1777,VALID,0,VALID,26.3887,VALID,22,VALID,0.979688,
2011-11-12, 00:16:04,VALID,1004.26,VALID,0,VALID,83.4828,VALID,0,VALID,26.3108,VALID,20,VALID,0.567187,
2011-11-12, 00:17:04,VALID,1004.26,VALID,0,VALID,82.7505,VALID,0,VALID,26.2933,VALID,15,VALID,2.10078,
2011-11-12, 00:18:04,VALID,1004.22,VALID,0,VALID,82.7734,VALID,0,VALID,26.3693,VALID,6,VALID,0.8375,
2011-11-12, 00:19:04,VALID,1004.2,VALID,0,VALID,82.4301,VALID,0,VALID,26.4082,VALID,13,VALID,1.63047,
2011-11-12, 00:20:04,VALID,1004.21,VALID,0,VALID,82.2927,VALID,0,VALID,26.4687,VALID,23,VALID,1.17891,
2011-11-12, 00:21:04,VALID,1004.2,VALID,0,VALID,82.2698,VALID,0,VALID,26.4687,VALID,4,VALID,0.922266,
2011-11-12, 00:22:04,VALID,1004.18,VALID,0,VALID,82.4682,VALID,0,VALID,26.4492,VALID,12,VALID,0.842969,
2011-11-12, 00:23:04,VALID,1004.15,VALID,0,VALID,82.369,VALID,0,VALID,26.4472,VALID,9,VALID,1.07031,
2011-11-12, 00:24:04,VALID,1004.16,VALID,0,VALID,81.9799,VALID,0,VALID,26.4687,VALID,6,VALID,1.63281,
2011-11-12, 00:25:04,VALID,1004.13,VALID,0,VALID,81.9342,VALID,0,VALID,26.5251,VALID,12,VALID,1.1957,
2011-11-12, 00:26:04,VALID,1004.11,VALID,0,VALID,81.9037,VALID,0,VALID,26.5661,VALID,11,VALID,1.17617,
2011-11-12, 00:27:04,VALID,1004.1,VALID,0,VALID,81.7816,VALID,0,VALID,26.5855,VALID,13,VALID,1.10742,
2011-11-12, 00:28:04,VALID,1004.07,VALID,0,VALID,81.8579,VALID,0,VALID,26.5855,VALID,5,VALID,1.18594,
2011-11-12, 00:29:04,VALID,1004.06,VALID,0,VALID,81.7435,VALID,0,VALID,26.5446,VALID,28,VALID,0.814844,
2011-11-12, 00:30:04,VALID,1004.07,VALID,0,VALID,81.3544,VALID,0,VALID,26.5446,VALID,358,VALID,1.91992,
2011-11-12, 00:31:04,VALID,1004.02,VALID,0,VALID,81.3696,VALID,0,VALID,26.605,VALID,1,VALID,1.09414,
2011-11-12, 00:32:04,VALID,1004,VALID,0,VALID,81.5451,VALID,0,VALID,26.5855,VALID,349,VALID,1.36406,
2011-11-12, 00:33:04,VALID,1004,VALID,0,VALID,81.7358,VALID,0,VALID,26.5855,VALID,19,VALID,1.01133,
2011-11-12, 00:34:04,VALID,1004.02,VALID,0,VALID,81.7282,VALID,0,VALID,26.5855,VALID,10,VALID,1.16133,
2011-11-12, 00:35:04,VALID,1004.02,VALID,0,VALID,81.6214,VALID,0,VALID,26.5641,VALID,10,VALID,0.777734,
2011-11-12, 00:36:04,VALID,1004.02,VALID,0,VALID,81.4688,VALID,0,VALID,26.603,VALID,355,VALID,1.11406,
2011-11-12, 00:37:04,VALID,1004.05,VALID,0,VALID,81.362,VALID,0,VALID,26.6245,VALID,14,VALID,1.11445,
2011-11-12, 00:38:04,VALID,1004.02,VALID,0,VALID,81.5756,VALID,0,VALID,26.6225,VALID,360,VALID,1.08594,
2011-11-12, 00:39:04,VALID,1004.04,VALID,0,VALID,81.5146,VALID,0,VALID,26.603,VALID,1,VALID,0.977734,
2011-11-12, 00:40:04,VALID,1004.05,VALID,0,VALID,81.8121,VALID,0,VALID,26.603,VALID,4,VALID,0.911719,
2011-11-12, 00:41:04,VALID,1004.02,VALID,0,VALID,81.9113,VALID,0,VALID,26.5855,VALID,29,VALID,0.716406,
2011-11-12, 00:42:04,VALID,1004.02,VALID,0,VALID,82.0715,VALID,0,VALID,26.5056,VALID,14,VALID,1.26406,
2011-11-12, 00:43:04,VALID,1004.02,VALID,0,VALID,82.0944,VALID,0,VALID,26.5076,VALID,357,VALID,0.785937,
2011-11-12, 00:44:04,VALID,1004.03,VALID,0,VALID,82.0333,VALID,0,VALID,26.4472,VALID,11,VALID,1.16484,
2011-11-12, 00:45:04,VALID,1003.99,VALID,0,VALID,82.247,VALID,0,VALID,26.4472,VALID,19,VALID,0.493359,
2011-11-12, 00:46:04,VALID,1004,VALID,0,VALID,82.5674,VALID,0,VALID,26.4492,VALID,13,VALID,1.14688,
2011-11-12, 00:47:04,VALID,1003.98,VALID,0,VALID,82.5597,VALID,0,VALID,26.4102,VALID,20,VALID,0.700781,
2011-11-12, 00:48:04,VALID,1003.95,VALID,0,VALID,82.8649,VALID,0,VALID,26.3907,VALID,16,VALID,0.675391,
2011-11-12, 00:49:04,VALID,1003.94,VALID,0,VALID,83.1548,VALID,0,VALID,26.3518,VALID,16,VALID,0.545313,
2011-11-12, 00:50:04,VALID,1003.94,VALID,0,VALID,83.5286,VALID,0,VALID,26.2739,VALID,16,VALID,0.601172,
2011-11-12, 00:51:04,VALID,1003.91,VALID,0,VALID,83.6278,VALID,0,VALID,26.2134,VALID,36,VALID,0.561328,
2011-11-12, 00:52:04,VALID,1003.92,VALID,0,VALID,83.9024,VALID,0,VALID,26.1959,VALID,33,VALID,0.747266,
2011-11-12, 00:53:04,VALID,1003.95,VALID,0,VALID,83.8261,VALID,0,VALID,26.155,VALID,359,VALID,1.34258,
2011-11-12, 00:54:04,VALID,1003.89,VALID,0,VALID,83.643,VALID,0,VALID,26.1725,VALID,22,VALID,0.865625,
2011-11-12, 00:55:04,VALID,1003.9,VALID,0,VALID,83.6888,VALID,0,VALID,26.2349,VALID,25,VALID,0.75,
2011-11-12, 00:56:04,VALID,1003.89,VALID,0,VALID,83.4981,VALID,0,VALID,26.2544,VALID,15,VALID,0.715625,
2011-11-12, 00:57:04,VALID,1003.9,VALID,0,VALID,83.5515,VALID,0,VALID,26.2524,VALID,19,VALID,0.320703,
2011-11-12, 00:58:04,VALID,1003.91,VALID,0,VALID,83.5744,VALID,0,VALID,26.2544,VALID,19,VALID,0.557031,
2011-11-12, 00:59:04,VALID,1003.94,VALID,0,VALID,83.582,VALID,0,VALID,26.2544,VALID,27,VALID,0.787891,
2011-11-12, 01:00:04,VALID,1003.91,VALID,0,VALID,83.5362,VALID,0,VALID,26.2524,VALID,13,VALID,0.474609,
2011-11-12, 01:01:04,VALID,1003.88,VALID,0,VALID,83.2387,VALID,0,VALID,26.2933,VALID,38,VALID,1.05195,
2011-11-12, 01:02:04,VALID,1003.89,VALID,0,VALID,83.3226,VALID,0,VALID,26.2913,VALID,27,VALID,0.958984,
2011-11-12, 01:03:04,VALID,1003.86,VALID,0,VALID,83.0785,VALID,0,VALID,26.3108,VALID,16,VALID,1.04414,
2011-11-12, 01:04:04,VALID,1003.89,VALID,0,VALID,83.1624,VALID,0,VALID,26.3303,VALID,22,VALID,1.3625,
2011-11-12, 01:05:04,VALID,1003.89,VALID,0,VALID,83.1243,VALID,0,VALID,26.3108,VALID,15,VALID,0.730859,
2011-11-12, 01:06:04,VALID,1003.89,VALID,0,VALID,83.109,VALID,0,VALID,26.3108,VALID,4,VALID,1.04492,
2011-11-12, 01:07:04,VALID,1003.9,VALID,0,VALID,82.9259,VALID,0,VALID,26.3907,VALID,5,VALID,1.34531,
2011-11-12, 01:08:04,VALID,1003.9,VALID,0,VALID,82.636,VALID,0,VALID,26.4102,VALID,5,VALID,1.19492,
2011-11-12, 01:09:04,VALID,1003.92,VALID,0,VALID,82.2775,VALID,0,VALID,26.4667,VALID,16,VALID,1.63828,
2011-11-12, 01:10:04,VALID,1003.91,VALID,0,VALID,82.3385,VALID,0,VALID,26.5076,VALID,28,VALID,0.867578,
2011-11-12, 01:11:04,VALID,1003.9,VALID,0,VALID,82.4529,VALID,0,VALID,26.4881,VALID,30,VALID,0.547266,
2011-11-12, 01:12:04,VALID,1003.9,VALID,0,VALID,82.6284,VALID,0,VALID,26.4297,VALID,24,VALID,1.17188,
2011-11-12, 01:13:04,VALID,1003.9,VALID,0,VALID,82.7276,VALID,0,VALID,26.4297,VALID,13,VALID,0.748828,
2011-11-12, 01:14:04,VALID,1003.88,VALID,0,VALID,82.781,VALID,0,VALID,26.3907,VALID,9,VALID,0.451953,
2011-11-12, 01:15:04,VALID,1003.86,VALID,0,VALID,83.1929,VALID,0,VALID,26.3498,VALID,32,VALID,0.607031,
2011-11-12, 01:16:04,VALID,1003.83,VALID,0,VALID,83.1243,VALID,0,VALID,26.3323,VALID,23,VALID,1.08828,
2011-11-12, 01:17:05,VALID,1003.86,VALID,0,VALID,83.254,VALID,0,VALID,26.3128,VALID,6,VALID,1.93945,
2011-11-12, 01:18:05,VALID,1003.85,VALID,0,VALID,83.3074,VALID,0,VALID,26.3303,VALID,11,VALID,0.882422,
2011-11-12, 01:19:05,VALID,1003.85,VALID,0,VALID,83.4142,VALID,0,VALID,26.3128,VALID,22,VALID,1.28711,
2011-11-12, 01:20:05,VALID,1003.84,VALID,0,VALID,82.9412,VALID,0,VALID,26.3907,VALID,350,VALID,1.70234,
2011-11-12, 01:21:05,VALID,1003.84,VALID,0,VALID,82.3995,VALID,0,VALID,26.4472,VALID,30,VALID,1.52188,
2011-11-12, 01:22:05,VALID,1003.83,VALID,0,VALID,82.3919,VALID,0,VALID,26.4667,VALID,34,VALID,1.16484,
2011-11-12, 01:23:05,VALID,1003.84,VALID,0,VALID,82.4224,VALID,0,VALID,26.4861,VALID,14,VALID,0.646484,
2011-11-12, 01:24:05,VALID,1003.82,VALID,0,VALID,82.5597,VALID,0,VALID,26.4861,VALID,26,VALID,0.679297,
2011-11-12, 01:25:05,VALID,1003.76,VALID,0,VALID,82.7123,VALID,0,VALID,26.4492,VALID,18,VALID,0.896875,
2011-11-12, 01:26:05,VALID,1003.75,VALID,0,VALID,82.9183,VALID,0,VALID,26.3887,VALID,21,VALID,0.909375,
2011-11-12, 01:27:05,VALID,1003.73,VALID,0,VALID,83.048,VALID,0,VALID,26.3907,VALID,7,VALID,0.982031,
2011-11-12, 01:28:05,VALID,1003.72,VALID,0,VALID,83.2769,VALID,0,VALID,26.3693,VALID,26,VALID,1.21133,
2011-11-12, 01:29:05,VALID,1003.69,VALID,0,VALID,83.46,VALID,0,VALID,26.3538,VALID,7,VALID,0.662891,
2011-11-12, 01:30:05,VALID,1003.67,VALID,0,VALID,83.7651,VALID,0,VALID,26.2719,VALID,7,VALID,0.511719,
2011-11-12, 01:31:05,VALID,1003.65,VALID,0,VALID,83.8719,VALID,0,VALID,26.2524,VALID,15,VALID,0.499609,
2011-11-12, 01:32:05,VALID,1003.6,VALID,0,VALID,83.7041,VALID,0,VALID,26.2544,VALID,31,VALID,1.98828,
2011-11-12, 01:33:05,VALID,1003.62,VALID,0,VALID,83.5896,VALID,0,VALID,26.3303,VALID,29,VALID,1.26563,
2011-11-12, 01:34:05,VALID,1003.6,VALID,0,VALID,83.2769,VALID,0,VALID,26.3887,VALID,1,VALID,0.742188,
2011-11-12, 01:35:05,VALID,1003.58,VALID,0,VALID,83.4676,VALID,0,VALID,26.3887,VALID,45,VALID,0.545703,
2011-11-12, 01:36:05,VALID,1003.55,VALID,0,VALID,83.6507,VALID,0,VALID,26.3303,VALID,40,VALID,0.416797,
2011-11-12, 01:37:05,VALID,1003.56,VALID,0,VALID,83.7117,VALID,0,VALID,26.2933,VALID,13,VALID,0.785156,
2011-11-12, 01:38:05,VALID,1003.53,VALID,0,VALID,83.849,VALID,0,VALID,26.2739,VALID,21,VALID,0.527734,
2011-11-12, 01:39:05,VALID,1003.53,VALID,0,VALID,83.9177,VALID,0,VALID,26.2329,VALID,17,VALID,0.603906,
2011-11-12, 01:40:05,VALID,1003.53,VALID,0,VALID,83.9482,VALID,0,VALID,26.2329,VALID,26,VALID,0.951172,
2011-11-12, 01:41:05,VALID,1003.51,VALID,0,VALID,84.0016,VALID,0,VALID,26.2544,VALID,19,VALID,0.398438,
2011-11-12, 01:42:05,VALID,1003.53,VALID,0,VALID,84.0779,VALID,0,VALID,26.194,VALID,19,VALID,0.508594,
2011-11-12, 01:43:05,VALID,1003.51,VALID,0,VALID,84.2534,VALID,0,VALID,26.1959,VALID,19,VALID,0.291016,
2011-11-12, 01:44:05,VALID,1003.49,VALID,0,VALID,84.1847,VALID,0,VALID,26.1765,VALID,18,VALID,0.470313,
2011-11-12, 01:45:05,VALID,1003.5,VALID,0,VALID,84.1237,VALID,0,VALID,26.1765,VALID,18,VALID,0,
2011-11-12, 01:46:05,VALID,1003.49,VALID,0,VALID,84.1618,VALID,0,VALID,26.1765,VALID,18,VALID,0,
2011-11-12, 01:47:05,VALID,1003.5,VALID,0,VALID,84.383,VALID,0,VALID,26.155,VALID,18,VALID,0.538281,
2011-11-12, 01:48:05,VALID,1003.49,VALID,0,VALID,84.6958,VALID,0,VALID,26.116,VALID,18,VALID,0.490234,
2011-11-12, 01:49:05,VALID,1003.45,VALID,0,VALID,84.7035,VALID,0,VALID,26.0985,VALID,18,VALID,0.373047,
2011-11-12, 01:50:05,VALID,1003.47,VALID,0,VALID,85.001,VALID,0,VALID,26.0596,VALID,18,VALID,0.791016,
2011-11-12, 01:51:05,VALID,1003.49,VALID,0,VALID,85.2299,VALID,0,VALID,25.9992,VALID,130,VALID,0.930078,
2011-11-12, 01:52:05,VALID,1003.49,VALID,0,VALID,85.3519,VALID,0,VALID,25.9602,VALID,179,VALID,0.533594,
2011-11-12, 01:53:05,VALID,1003.49,VALID,0,VALID,85.5503,VALID,0,VALID,25.9408,VALID,179,VALID,0.142188,
2011-11-12, 01:54:05,VALID,1003.49,VALID,0,VALID,85.7105,VALID,0,VALID,25.8823,VALID,179,VALID,0,
2011-11-12, 01:55:05,VALID,1003.48,VALID,0,VALID,85.8631,VALID,0,VALID,25.8648,VALID,179,VALID,0,
2011-11-12, 01:56:05,VALID,1003.49,VALID,0,VALID,86.1301,VALID,0,VALID,25.8044,VALID,179,VALID,0.00390625,
2011-11-12, 01:57:05,VALID,1003.5,VALID,0,VALID,86.2979,VALID,0,VALID,25.746,VALID,179,VALID,0.149609,
2011-11-12, 01:58:05,VALID,1003.51,VALID,0,VALID,86.4505,VALID,0,VALID,25.7071,VALID,179,VALID,0.0609375,
2011-11-12, 01:59:05,VALID,1003.51,VALID,0,VALID,86.7709,VALID,0,VALID,25.6486,VALID,179,VALID,0.153516,
2011-11-12, 02:00:05,VALID,1003.51,VALID,0,VALID,87.2744,VALID,0,VALID,25.6097,VALID,99,VALID,0.620703,
2011-11-12, 02:01:05,VALID,1003.48,VALID,0,VALID,87.549,VALID,0,VALID,25.4928,VALID,32,VALID,0.757031,
2011-11-12, 02:02:05,VALID,1003.52,VALID,0,VALID,88.1212,VALID,0.0815089,VALID,25.3779,VALID,32,VALID,0.143359,
2011-11-12, 02:03:05,VALID,1003.5,VALID,0,VALID,88.5866,VALID,0,VALID,25.3,VALID,32,VALID,0.046875,
2011-11-12, 02:04:05,VALID,1003.47,VALID,0,VALID,88.8917,VALID,0,VALID,25.2202,VALID,32,VALID,0,
2011-11-12, 02:05:05,VALID,1003.45,VALID,0,VALID,89.1282,VALID,0,VALID,25.1618,VALID,32,VALID,0,
2011-11-12, 02:06:05,VALID,1003.42,VALID,0,VALID,89.3418,VALID,0.0815089,VALID,25.1442,VALID,32,VALID,0,
2011-11-12, 02:07:05,VALID,1003.38,VALID,0,VALID,89.5402,VALID,0,VALID,25.0839,VALID,32,VALID,0,
2011-11-12, 02:08:05,VALID,1003.35,VALID,0,VALID,89.7156,VALID,0,VALID,25.045,VALID,32,VALID,0,
2011-11-12, 02:09:05,VALID,1003.37,VALID,0,VALID,89.9369,VALID,0,VALID,25.006,VALID,32,VALID,0,
2011-11-12, 02:10:05,VALID,1003.34,VALID,0,VALID,90.1276,VALID,0,VALID,24.9866,VALID,32,VALID,0,
2011-11-12, 02:11:05,VALID,1003.35,VALID,0,VALID,90.3412,VALID,0,VALID,24.9885,VALID,32,VALID,0,
2011-11-12, 02:12:05,VALID,1003.33,VALID,0,VALID,90.4785,VALID,0,VALID,24.9282,VALID,32,VALID,0,
2011-11-12, 02:13:05,VALID,1003.32,VALID,0,VALID,90.6235,VALID,0.0815089,VALID,24.9087,VALID,32,VALID,0,
2011-11-12, 02:14:05,VALID,1003.32,VALID,0,VALID,90.6998,VALID,0,VALID,24.8308,VALID,32,VALID,0.416016,
2011-11-12, 02:15:05,VALID,1003.33,VALID,0,VALID,90.9744,VALID,0,VALID,24.7919,VALID,32,VALID,0.651563,
2011-11-12, 02:16:05,VALID,1003.36,VALID,0,VALID,91.249,VALID,0,VALID,24.7548,VALID,29,VALID,0.659375,
2011-11-12, 02:17:05,VALID,1003.36,VALID,0,VALID,91.4626,VALID,0,VALID,24.675,VALID,29,VALID,0.717578,
2011-11-12, 02:18:05,VALID,1003.4,VALID,0,VALID,91.722,VALID,0,VALID,24.6166,VALID,29,VALID,0.616406,
2011-11-12, 02:19:05,VALID,1003.39,VALID,0,VALID,92.0424,VALID,0,VALID,24.5972,VALID,29,VALID,0.566016,
2011-11-12, 02:20:05,VALID,1003.38,VALID,0,VALID,92.1645,VALID,0,VALID,24.5582,VALID,29,VALID,0.383203,
2011-11-12, 02:21:05,VALID,1003.39,VALID,0,VALID,92.3705,VALID,0,VALID,24.5174,VALID,29,VALID,0.619531,
2011-11-12, 02:22:05,VALID,1003.41,VALID,0,VALID,92.607,VALID,0,VALID,24.4998,VALID,29,VALID,0.661328,
2011-11-12, 02:23:05,VALID,1003.41,VALID,0,VALID,92.7443,VALID,0,VALID,24.4998,VALID,29,VALID,0.669922,
2011-11-12, 02:24:05,VALID,1003.38,VALID,0,VALID,92.813,VALID,0,VALID,24.4609,VALID,29,VALID,0.501953,
2011-11-12, 02:25:05,VALID,1003.41,VALID,0,VALID,92.9198,VALID,0.0815089,VALID,24.4414,VALID,14,VALID,0.741016,
2011-11-12, 02:26:05,VALID,1003.4,VALID,0,VALID,93.0723,VALID,0,VALID,24.4006,VALID,14,VALID,0.613281,
2011-11-12, 02:27:05,VALID,1003.4,VALID,0,VALID,93.2402,VALID,0,VALID,24.4025,VALID,14,VALID,0.520312,
2011-11-12, 02:28:05,VALID,1003.39,VALID,0,VALID,93.4156,VALID,0.0815089,VALID,24.4025,VALID,14,VALID,0.475781,
2011-11-12, 02:29:05,VALID,1003.36,VALID,0,VALID,93.4614,VALID,0,VALID,24.422,VALID,14,VALID,0.489062,
2011-11-12, 02:30:05,VALID,1003.36,VALID,0,VALID,93.5072,VALID,0,VALID,24.4025,VALID,14,VALID,0.539453,
2011-11-12, 02:31:05,VALID,1003.34,VALID,0,VALID,93.6292,VALID,0.0815089,VALID,24.422,VALID,14,VALID,0.457031,
2011-11-12, 02:32:05,VALID,1003.33,VALID,0,VALID,93.6903,VALID,0.0815089,VALID,24.4433,VALID,14,VALID,0.547656,
2011-11-12, 02:33:05,VALID,1003.33,VALID,0,VALID,93.7284,VALID,0,VALID,24.4609,VALID,14,VALID,0.555078,
2011-11-12, 02:34:05,VALID,1003.33,VALID,0,VALID,93.7284,VALID,0,VALID,24.4822,VALID,14,VALID,0.668359,
2011-11-12, 02:35:05,VALID,1003.33,VALID,0,VALID,93.7055,VALID,0.0815089,VALID,24.4998,VALID,14,VALID,0.501562,
2011-11-12, 02:36:05,VALID,1003.3,VALID,0,VALID,93.5987,VALID,0,VALID,24.5193,VALID,14,VALID,0.466406,
2011-11-12, 02:37:05,VALID,1003.3,VALID,0,VALID,93.553,VALID,0.0815089,VALID,24.5193,VALID,14,VALID,0.478906,
2011-11-12, 02:38:05,VALID,1003.28,VALID,0,VALID,93.5835,VALID,0.0815089,VALID,24.5193,VALID,14,VALID,0.340625,
2011-11-12, 02:39:05,VALID,1003.29,VALID,0,VALID,93.6521,VALID,0,VALID,24.5174,VALID,14,VALID,0.302734,
2011-11-12, 02:40:05,VALID,1003.28,VALID,0,VALID,93.5377,VALID,0.0815089,VALID,24.5582,VALID,14,VALID,0.345703,
2011-11-12, 02:41:05,VALID,1003.29,VALID,0,VALID,93.5148,VALID,0,VALID,24.5369,VALID,14,VALID,0.18125,
2011-11-12, 02:42:05,VALID,1003.3,VALID,0,VALID,93.5453,VALID,0.0815089,VALID,24.5758,VALID,14,VALID,0,
2011-11-12, 02:43:05,VALID,1003.32,VALID,0,VALID,93.5606,VALID,0,VALID,24.5972,VALID,14,VALID,0,
2011-11-12, 02:44:05,VALID,1003.31,VALID,0,VALID,93.5301,VALID,0,VALID,24.6361,VALID,14,VALID,0,
2011-11-12, 02:45:05,VALID,1003.34,VALID,0,VALID,93.5453,VALID,0,VALID,24.6148,VALID,14,VALID,0,
2011-11-12, 02:46:05,VALID,1003.33,VALID,0,VALID,93.5301,VALID,0,VALID,24.6537,VALID,14,VALID,0,
2011-11-12, 02:47:05,VALID,1003.34,VALID,0,VALID,93.5072,VALID,0.0815089,VALID,24.6537,VALID,14,VALID,0,
2011-11-12, 02:48:05,VALID,1003.38,VALID,0,VALID,93.4614,VALID,0.0815089,VALID,24.6926,VALID,14,VALID,0,
2011-11-12, 02:49:05,VALID,1003.37,VALID,0,VALID,93.3699,VALID,0.0815089,VALID,24.714,VALID,14,VALID,0.283594,
2011-11-12, 02:50:05,VALID,1003.4,VALID,0,VALID,93.3165,VALID,0,VALID,24.714,VALID,14,VALID,0.259766,
2011-11-12, 02:51:05,VALID,1003.41,VALID,0,VALID,93.2249,VALID,0.0815089,VALID,24.7121,VALID,14,VALID,0.219141,
2011-11-12, 02:52:05,VALID,1003.44,VALID,0,VALID,93.1944,VALID,0,VALID,24.7335,VALID,14,VALID,0.342969,
2011-11-12, 02:53:05,VALID,1003.44,VALID,0,VALID,93.1791,VALID,0,VALID,24.7335,VALID,14,VALID,0.410937,
2011-11-12, 02:54:05,VALID,1003.4,VALID,0,VALID,93.1715,VALID,0.0815089,VALID,24.7335,VALID,14,VALID,0.394531,
2011-11-12, 02:55:05,VALID,1003.42,VALID,0,VALID,93.2097,VALID,0,VALID,24.7335,VALID,14,VALID,0.376563,
2011-11-12, 02:56:05,VALID,1003.43,VALID,0,VALID,93.1791,VALID,0,VALID,24.7335,VALID,14,VALID,0.478516,
2011-11-12, 02:57:05,VALID,1003.38,VALID,0,VALID,93.2249,VALID,0,VALID,24.7335,VALID,14,VALID,0.494922,
2011-11-12, 02:58:05,VALID,1003.41,VALID,0,VALID,93.2402,VALID,0.0815089,VALID,24.714,VALID,8,VALID,0.732813,
2011-11-12, 02:59:05,VALID,1003.42,VALID,0,VALID,93.4156,VALID,0,VALID,24.7353,VALID,6,VALID,0.642578,
2011-11-12, 03:00:05,VALID,1003.4,VALID,0,VALID,93.4996,VALID,0,VALID,24.7335,VALID,5,VALID,0.764453,
2011-11-12, 03:01:05,VALID,1003.43,VALID,0,VALID,93.5453,VALID,0.0815089,VALID,24.7335,VALID,5,VALID,0.634375,
2011-11-12, 03:02:05,VALID,1003.43,VALID,0,VALID,93.5453,VALID,0,VALID,24.7548,VALID,5,VALID,0.547266,
2011-11-12, 03:03:05,VALID,1003.43,VALID,0,VALID,93.5377,VALID,0,VALID,24.7335,VALID,5,VALID,0.462109,
2011-11-12, 03:04:05,VALID,1003.44,VALID,0,VALID,93.5606,VALID,0,VALID,24.7335,VALID,5,VALID,0.488672,
2011-11-12, 03:05:05,VALID,1003.44,VALID,0,VALID,93.5224,VALID,0,VALID,24.714,VALID,5,VALID,0.502734,
2011-11-12, 03:06:05,VALID,1003.43,VALID,0,VALID,93.4767,VALID,0.0815089,VALID,24.714,VALID,5,VALID,0.386328,
2011-11-12, 03:07:05,VALID,1003.43,VALID,0,VALID,93.469,VALID,0.0815089,VALID,24.714,VALID,5,VALID,0.29375,
2011-11-12, 03:08:05,VALID,1003.43,VALID,0,VALID,93.4843,VALID,0,VALID,24.6732,VALID,5,VALID,0.346094,
2011-11-12, 03:09:05,VALID,1003.43,VALID,0,VALID,93.4843,VALID,0.0815089,VALID,24.6926,VALID,5,VALID,0.155469,
2011-11-12, 03:10:05,VALID,1003.41,VALID,0,VALID,93.4843,VALID,0.0815089,VALID,24.6945,VALID,5,VALID,0.135547,
2011-11-12, 03:11:05,VALID,1003.42,VALID,0,VALID,93.4843,VALID,0.0815089,VALID,24.6945,VALID,5,VALID,0,
2011-11-12, 03:12:05,VALID,1003.42,VALID,0,VALID,93.5301,VALID,0,VALID,24.6945,VALID,5,VALID,0,
2011-11-12, 03:13:05,VALID,1003.42,VALID,0,VALID,93.5148,VALID,0.0815089,VALID,24.6945,VALID,5,VALID,0,
2011-11-12, 03:14:05,VALID,1003.4,VALID,0,VALID,93.5072,VALID,0,VALID,24.6945,VALID,5,VALID,0,
2011-11-12, 03:15:05,VALID,1003.42,VALID,0,VALID,93.5301,VALID,0,VALID,24.6945,VALID,5,VALID,0,
2011-11-12, 03:16:05,VALID,1003.41,VALID,0,VALID,93.4843,VALID,0.0815089,VALID,24.6945,VALID,5,VALID,0,
2011-11-12, 03:17:05,VALID,1003.38,VALID,0,VALID,93.4462,VALID,0,VALID,24.6537,VALID,5,VALID,0,
2011-11-12, 03:18:05,VALID,1003.42,VALID,0,VALID,93.4233,VALID,0.0815089,VALID,24.6537,VALID,5,VALID,0,
2011-11-12, 03:19:05,VALID,1003.45,VALID,0,VALID,93.4538,VALID,0.0815089,VALID,24.6361,VALID,5,VALID,0,
2011-11-12, 03:20:05,VALID,1003.45,VALID,0,VALID,93.4538,VALID,0.0815089,VALID,24.6148,VALID,5,VALID,0,
2011-11-12, 03:21:05,VALID,1003.46,VALID,0,VALID,93.4767,VALID,0.0815089,VALID,24.6166,VALID,5,VALID,0,
2011-11-12, 03:22:05,VALID,1003.45,VALID,0,VALID,93.5072,VALID,0,VALID,24.5972,VALID,5,VALID,0,
2011-11-12, 03:23:05,VALID,1003.48,VALID,0,VALID,93.5148,VALID,0,VALID,24.5777,VALID,5,VALID,0,
2011-11-12, 03:24:05,VALID,1003.5,VALID,0,VALID,93.5453,VALID,0.0815089,VALID,24.5777,VALID,5,VALID,0,
2011-11-12, 03:25:05,VALID,1003.52,VALID,0,VALID,93.4767,VALID,0,VALID,24.5174,VALID,5,VALID,0,
2011-11-12, 03:26:05,VALID,1003.52,VALID,0,VALID,93.5148,VALID,0.0815089,VALID,24.4785,VALID,5,VALID,0,
2011-11-12, 03:27:05,VALID,1003.48,VALID,0,VALID,93.5606,VALID,0,VALID,24.459,VALID,5,VALID,0,
2011-11-12, 03:28:05,VALID,1003.48,VALID,0,VALID,93.5987,VALID,0.0815089,VALID,24.4609,VALID,5,VALID,0,
2011-11-12, 03:29:05,VALID,1003.44,VALID,0,VALID,93.6903,VALID,0.0815089,VALID,24.4201,VALID,5,VALID,0.390625,
2011-11-12, 03:30:05,VALID,1003.39,VALID,0,VALID,93.8123,VALID,0,VALID,24.422,VALID,5,VALID,0.419141,
2011-11-12, 03:31:05,VALID,1003.34,VALID,0,VALID,93.82,VALID,0,VALID,24.4025,VALID,5,VALID,0.0648438,
2011-11-12, 03:32:05,VALID,1003.29,VALID,0,VALID,93.8123,VALID,0,VALID,24.3617,VALID,5,VALID,0.00078125,
2011-11-12, 03:33:05,VALID,1003.26,VALID,0,VALID,93.7818,VALID,0,VALID,24.3636,VALID,5,VALID,0,
2011-11-12, 03:34:05,VALID,1003.24,VALID,0,VALID,93.7895,VALID,0,VALID,24.3246,VALID,5,VALID,0,
2011-11-12, 03:35:05,VALID,1003.25,VALID,0,VALID,93.7513,VALID,0.0815089,VALID,24.2857,VALID,5,VALID,0,
2011-11-12, 03:36:05,VALID,1003.24,VALID,0,VALID,93.7971,VALID,0.0815089,VALID,24.2662,VALID,5,VALID,0,
2011-11-12, 03:37:05,VALID,1003.26,VALID,0,VALID,93.9497,VALID,0,VALID,24.2468,VALID,5,VALID,0,
2011-11-12, 03:38:05,VALID,1003.26,VALID,0,VALID,94.0107,VALID,0,VALID,24.2255,VALID,5,VALID,0,
2011-11-12, 03:39:05,VALID,1003.27,VALID,0,VALID,94.0412,VALID,0.0815089,VALID,24.2468,VALID,5,VALID,0,
2011-11-12, 03:40:05,VALID,1003.26,VALID,0,VALID,94.1099,VALID,0.0815089,VALID,24.206,VALID,5,VALID,0,
2011-11-12, 03:41:05,VALID,1003.23,VALID,0,VALID,94.2014,VALID,0.0815089,VALID,24.1865,VALID,5,VALID,0,
2011-11-12, 03:42:05,VALID,1003.22,VALID,0,VALID,94.2243,VALID,0.0815089,VALID,24.206,VALID,5,VALID,0,
2011-11-12, 03:43:05,VALID,1003.2,VALID,0,VALID,94.3311,VALID,0.0815089,VALID,24.2078,VALID,5,VALID,0,
2011-11-12, 03:44:05,VALID,1003.2,VALID,0,VALID,94.3921,VALID,0,VALID,24.2078,VALID,5,VALID,0,
2011-11-12, 03:45:05,VALID,1003.2,VALID,0,VALID,94.4227,VALID,0,VALID,24.2078,VALID,5,VALID,0,
2011-11-12, 03:46:05,VALID,1003.2,VALID,0,VALID,94.4532,VALID,0,VALID,24.1884,VALID,5,VALID,0.245312,
2011-11-12, 03:47:05,VALID,1003.19,VALID,0,VALID,94.4608,VALID,0.0815089,VALID,24.1671,VALID,5,VALID,0.364062,